Location: Oulou
(10.7667°N, 12.5167°W)
Time: 04:12:46
(UTC+00:00)

Cosmos 1025 Rocket - Pass Details

Date: 20 September 2019
Orbit: 593 x 619 km, 82.5° (Epoch: 17 October)

Event Time Altitude Azimuth Distance (km) Brightness Sun altitude
Rises 19:52:43 0° 354° (N) 2,820 6.6 -16.8°
Reaches altitude 10° 19:54:55 10° 353° (N) 1,920 5.7 -17.3°
Maximum altitude 19:59:09 80° 267° (W) 608 3.0 -18.4°
Drops below altitude 10° 20:03:25 10° 180° (S) 1,931 5.5 -19.4°
Sets 20:05:38 0° 178° (S) 2,837 6.4 -20.0°
